Home   Weather   Zaragoza   Past weeks

Flag for Spain Past Weather in Zaragoza, Spain — Yesterday and Last 2 Weeks

Now
39 °F

Fog.


Feels Like: 34 °F
Forecast: 41 / 56 °F
Wind: 8 mph from South

Location: Zaragoza / Aeropuerto

Current Time: Dec 9, 2016 at 7:09:06 am

Latest Report: Dec 9, 2016 at 6:30 am


Visibility: 0 mi

Pressure: 30.54 "Hg

Humidity: 100%

Dew Point: 39 °F

Location of ZaragozaLocation

Past Weather in Zaragoza — Graph

°F

Zaragoza Temperature Yesterday

Maximum temperature yesterday: 48 °F (at 12:00 am)
Minimum temperature yesterday: 43 °F (at 11:00 pm)
Average temperature yesterday: 46 °F

High & Low Weather Summary for the Past Weeks

 TemperatureHumidityPressure
High63 °F (Dec 5, 3:30 pm)100% (Nov 24, 5:00 am)30.60 "Hg (Nov 24, 5:00 am)
Low34 °F (Nov 25, 8:00 am)62% (Nov 25, 2:00 pm)29.74 "Hg (Nov 24, 5:00 am)
Average46 °F92%30.14 "Hg
* Reported Nov 24 5:00 am — Dec 9 5:30 am, Zaragoza, Weather by CustomWeather, © 2016

Note: Actual official high and low records may vary slightly from our data, if they occured in-between our weather recording intervals... More about our weather records

Advertising

Zaragoza Weather History for the Previous 24 Hours

Scroll right to see more
 ConditionsComfort  
Time TempWeatherWind HumidityBarometerVisibility
5:30 am
Fri, Dec 9
41 °FFog.7 mph100%30.57 "Hg1 mi
5:00 am41 °FFog.6 mph100%30.57 "Hg1 mi
4:30 am43 °FFog.5 mph93%30.57 "Hg1 mi
4:00 am43 °FFog.5 mph93%30.57 "Hg1 mi
3:30 am43 °FFog.6 mph100%30.57 "Hg2 mi
3:00 am43 °FFog.5 mph100%30.57 "Hg2 mi
2:30 am43 °FFog.5 mph100%30.57 "Hg2 mi
2:00 am43 °FFog.8 mph100%30.57 "Hg2 mi
1:30 am43 °FFog.7 mph100%30.60 "Hg2 mi
1:00 am43 °FFog.8 mph100%30.60 "Hg2 mi
12:30 am45 °FFog.7 mph93%30.60 "Hg2 mi
12:00 am45 °FFog.5 mph93%30.60 "Hg2 mi
11:30 pm
Thu, Dec 8
45 °FFog.5 mph93%30.60 "Hg2 mi
11:00 pm43 °FFog.3 mph100%30.60 "Hg2 mi
10:30 pm45 °FFog.5 mph93%30.60 "Hg3 mi
10:00 pm45 °FFog.6 mph100%30.60 "Hg3 mi
9:30 pm45 °FFog.6 mph100%30.57 "Hg3 mi
9:00 pm45 °FLow clouds.7 mph100%30.57 "Hg4 mi
8:30 pm46 °FLow clouds.8 mph93%30.57 "Hg4 mi
8:00 pm46 °FLow clouds.8 mph93%30.57 "Hg4 mi
7:30 pm46 °FLow clouds.7 mph93%30.57 "Hg4 mi
7:00 pm46 °FLow clouds.7 mph93%30.57 "Hg4 mi
6:30 pm46 °FLow clouds.7 mph93%30.57 "Hg5 mi
6:00 pm46 °FLow clouds.6 mph93%30.57 "Hg5 mi
5:30 pm46 °FLow clouds.7 mph93%30.54 "Hg6 mi
5:00 pm46 °FLow clouds.8 mph93%30.54 "HgN/A
4:30 pm46 °FLow clouds.6 mph93%30.54 "HgN/A
4:00 pm46 °FLow clouds.7 mph93%30.54 "HgN/A
3:30 pm46 °FLow clouds.8 mph93%30.54 "HgN/A
3:00 pm48 °FLow clouds.6 mph87%30.54 "HgN/A
2:30 pm46 °FLow clouds.8 mph93%30.57 "HgN/A
2:00 pm48 °FPartly sunny.8 mph87%30.57 "HgN/A
1:30 pm46 °FPartly sunny.7 mph93%30.57 "HgN/A
1:00 pm46 °FOvercast.5 mph93%30.60 "HgN/A
12:30 pm46 °FOvercast.3 mph87%30.60 "HgN/A
12:00 pm46 °FLow clouds.2 mph93%30.60 "HgN/A
11:30 am46 °FLow clouds.5 mph87%30.60 "HgN/A
11:00 am46 °FLow clouds.1 mph87%30.60 "HgN/A
10:30 am46 °FLow clouds.3 mph93%30.60 "HgN/A
10:00 am45 °FLow clouds.No wind93%30.60 "HgN/A
9:30 am45 °FLow clouds.1 mph93%30.60 "Hg6 mi
9:00 am45 °FLow clouds.3 mph93%30.60 "Hg6 mi
8:30 am45 °FLow clouds.3 mph100%30.57 "Hg5 mi
8:00 am46 °FLow clouds.3 mph93%30.57 "Hg5 mi
7:30 am46 °FFog.3 mph93%30.57 "Hg3 mi
7:00 am45 °FFog.2 mph100%30.57 "Hg3 mi
Weather by CustomWeather, © 2016

See weather overviewHow to use our weather pages